STARLINK-30166 (57602 NORAD) Tracking and Keplerian Element Data

This shows tracking and keplerian element data for the satellite.

Feedback or suggestion? Click here.




ElementValue
Catalog57602
NameSTARLINK-30166
Epoch Orbit4681
Epoch Day160.11948667
Epoch Year2024
RAAN317.2303
Inclination43.004
Eccentricity0.0001307
Argument of Perigee266.8685
Mean Anonmoly93.2008
Mean Motion15.02537742
Decay Rate1.984E-05
L11 57602U 23119A 24160.11948667 .00001984 00000+0 16187-3 0 9998
L22 57602 43.0040 317.2303 0001307 266.8685 93.2008 15.02537742 46811



Live tracking and technical data element details for STARLINK-30166 (NORAD 57602). STARLINK-30166 can be tracked NOW for your location showing map with azimuth and elevation plus other details from your city location.







IsCatalogInMostPopularTable: catalog: 57602, numindb: 33
Update: records affected: 1



GetName: 57602 STARLINK-30166

Hit Count: updated at: Wed, 17 Jul 2024 23:13:41 GMT